GFSFLT1_con_lsi_069.txt.gz
Lid_Strength_Index
10 10 10 10 9 9 9 9 9 8 8 8 8 7 6 6 7 6 6 7 7 7 6 6 6 5 5 4 4 5 5 6
10 9 9 9 9 9 9 9 9 9 9 9 8 8 8 7 7 7 7 7 7 7 7 7 7 7 5 5 5 6 6 6
9 9 9 9 9 9 9 9 9 9 9 9 8 8 8 8 7 8 7 8 7 8 8 7 6 6 6 6 6 6 7 7
9 10 9 10 10 10 9 9 9 9 9 9 9 9 9 8 8 9 9 9 9 9 9 8 7 6 6 6 6 7 7 7
9 9 9 9 9 9 9 9 10 10 10 10 10 9 9 9 9 10 10 10 10 11 10 10 8 8 7 7 8 8 8 8
10 10 10 10 10 10 10 11 11 12 12 11 11 11 11 12 12 12 12 11 11 12 12 12 11 9 10 10 10 10 9 11
10 10 10 10 11 11 11 12 13 13 13 13 14 14 14 14 13 13 13 13 13 13 13 13 12 10 9 10 11 12 12 12
11 11 11 11 11 11 11 12 14 14 14 14 14 14 14 14 14 13 13 13 13 13 13 14 14 11 10 11 13 13 13 13
11 11 11 11 12 12 13 14 13 13 15 15 15 15 15 14 15 14 14 15 15 15 15 16 15 11 10 10 13 13 13 13
12 12 12 12 12 14 13 14 14 14 13 14 15 15 15 16 15 15 16 17 17 16 17 17 13 12 11 11 13 14 14 14
12 12 13 12 13 14 14 15 14 13 13 14 15 15 14 14 15 16 18 16 16 14 13 13 13 12 11 12 14 15 15 15
13 13 12 12 14 14 14 14 13 15 15 16 16 16 16 16 18 18 18 17 17 15 14 13 14 13 11 12 14 15 15 15
13 12 12 13 15 14 14 13 15 15 16 16 15 17 16 21 20 21 20 19 16 14 14 14 13 12 10 11 13 13 14 14
13 13 12 15 16 15 13 15 15 16 16 14 13 17 19 21 20 21 22 20 17 15 15 15 14 12 10 11 12 13 14 14
15 14 14 14 15 16 15 16 18 18 17 14 14 17 20 18 18 16 16 14 14 14 14 14 14 13 12 12 12 13 13 12
15 15 15 15 15 16 16 13 15 17 17 15 16 18 18 16 16 16 16 13 13 13 13 13 14 13 11 12 13 14 13 13
16 16 15 17 16 16 20 17 14 14 14 13 13 16 16 13 13 10 10 10 10 10 12 13 12 10 10 11 11 11 11 12
16 16 16 17 18 17 22 22 17 14 12 12 13 15 16 14 13 12 10 8 8 9 9 10 10 10 10 10 10 10 11 13
17 18 20 19 19 20 24 25 21 18 15 12 13 16 15 13 13 13 13 14 15 11 11 9 9 9 9 10 12 16 16 16
18 20 21 21 19 24 26 24 22 18 15 12 13 12 12 12 13 14 14 16 17 16 15 16 12 13 12 13 15 17 19 22

GFSFLT1_con_lsi_072.txt.gz
Lid_Strength_Index
10 10 10 10 10 10 9 9 9 9 9 9 9 8 8 7 7 7 7 7 7 7 7 7 6 5 3 3 3 4 4 5
10 10 10 10 10 10 10 10 10 10 9 9 9 9 9 8 8 8 8 8 8 8 7 7 7 7 6 5 4 4 5 5
10 10 10 10 10 10 10 10 10 10 10 9 9 9 9 9 8 8 8 8 8 8 8 8 8 8 8 7 6 6 6 6
10 10 10 10 10 10 10 10 10 10 10 10 10 10 10 9 9 9 9 9 10 10 10 9 9 8 7 6 6 6 6 6
10 11 11 10 10 10 10 10 11 11 11 11 11 11 11 11 11 11 11 11 11 11 11 11 10 9 7 7 7 7 7 7
11 11 11 11 11 11 11 11 11 12 12 12 12 13 13 13 13 13 13 12 12 13 13 13 12 10 9 9 8 9 8 9
11 11 11 12 12 12 12 12 13 13 14 13 14 14 14 14 14 14 14 13 13 13 13 13 12 10 9 9 11 11 11 10
12 12 12 12 12 12 12 13 14 14 15 15 15 15 15 15 15 14 14 14 14 14 14 14 14 11 10 9 10 11 11 11
12 12 12 12 12 13 13 14 14 14 15 16 15 16 16 16 16 15 15 14 15 15 15 16 14 11 10 9 11 11 12 12
12 12 13 13 13 14 14 14 14 14 14 15 15 16 16 16 16 16 16 16 16 15 16 17 15 10 10 9 11 11 12 13
13 13 13 13 14 14 14 15 15 14 15 16 16 17 17 16 16 17 18 15 15 15 17 17 13 11 10 10 11 12 13 13
14 13 13 13 14 14 15 15 14 16 16 16 16 17 17 17 17 17 17 17 18 17 18 17 14 13 11 9 12 12 13 13
13 13 13 14 16 15 15 14 16 16 16 16 17 15 15 19 18 19 20 20 18 19 16 17 16 12 10 10 11 11 13 13
14 14 13 15 16 16 14 16 16 17 17 16 16 14 17 20 18 19 22 20 18 18 18 15 14 12 9 10 10 11 12 12
16 15 15 15 16 16 15 16 16 14 14 15 15 13 15 17 17 18 18 18 16 17 17 14 14 12 12 11 12 11 11 11
16 15 15 15 15 16 17 18 18 16 14 13 13 14 15 15 15 16 16 15 17 17 17 16 15 12 10 11 11 12 11 11
18 18 18 19 17 16 21 22 21 17 15 14 13 13 13 14 15 11 9 9 9 9 12 13 10 8 8 8 9 9 9 13
19 18 18 18 18 17 23 25 23 20 18 16 14 13 12 15 15 12 11 9 8 9 9 9 8 7 8 9 9 9 11 14
21 21 21 20 20 18 21 26 25 23 21 19 17 15 12 13 14 16 16 15 14 11 8 7 7 7 8 9 11 14 15 17
24 24 23 22 20 22 26 25 23 22 20 19 16 14 12 12 12 14 14 14 14 14 13 13 9 10 10 11 15 17 20 21

GFSFLT1_con_lsi_075.txt.gz
Lid_Strength_Index
10 10 10 10 10 9 9 9 9 9 8 8 8 8 7 7 7 6 6 6 6 6 5 5 5 4 3 2 1 2 3 3
10 10 10 9 9 9 9 9 9 9 9 8 8 8 8 8 7 7 7 7 7 7 6 6 6 5 5 4 4 4 4 4
10 10 10 10 10 10 10 10 10 10 10 10 9 9 9 9 9 8 8 8 8 8 8 7 7 7 7 6 6 6 6 5
11 11 10 10 10 10 10 10 11 11 10 10 10 10 10 10 10 10 10 10 9 9 9 9 9 8 8 7 7 6 6 6
11 11 11 11 11 11 10 11 11 11 11 11 11 11 11 11 11 11 11 11 11 11 11 11 10 10 9 8 7 7 6 6
11 11 11 11 11 11 11 11 12 12 12 12 12 13 13 13 13 13 13 12 12 12 12 11 11 11 10 10 9 9 9 8
11 11 11 11 11 11 12 12 13 13 13 13 13 14 14 14 14 14 13 13 13 13 13 13 12 10 10 10 11 11 11 10
12 12 12 12 12 12 12 13 14 14 14 14 14 15 15 15 15 14 14 14 14 14 13 13 13 11 10 10 11 11 10 10
12 12 12 12 13 13 13 14 14 15 15 15 15 15 15 16 15 15 15 15 15 15 14 14 14 11 10 10 10 10 10 10
12 12 13 13 13 14 14 14 14 14 14 15 16 16 16 17 16 15 15 15 15 14 15 15 14 11 9 9 11 10 10 11
13 13 13 13 14 14 14 15 15 15 15 15 16 17 17 16 16 16 16 15 15 14 14 15 15 12 11 10 11 11 11 12
13 13 14 14 15 15 15 15 15 16 16 16 16 17 17 16 17 16 17 16 16 16 15 15 15 14 11 10 11 11 12 12
13 13 13 15 16 16 16 15 17 17 17 17 18 17 15 15 17 18 18 18 17 16 15 14 14 13 11 9 10 10 12 12
15 15 14 17 17 16 15 16 17 18 16 14 14 17 14 14 16 16 18 17 16 15 15 14 14 13 10 9 10 11 12 11
17 17 17 17 16 18 17 16 19 19 17 16 15 13 12 13 14 16 16 16 15 15 15 15 14 13 11 10 12 11 11 10
18 18 18 18 18 19 17 18 19 19 18 16 14 14 13 12 12 14 13 13 13 13 13 13 14 12 10 10 11 10 10 9
20 21 20 20 20 20 22 21 21 20 18 17 16 15 14 14 13 11 10 9 8 8 8 11 10 9 7 8 8 8 8 10
22 22 22 22 22 23 24 26 25 23 21 20 19 18 17 15 14 14 12 9 8 8 8 8 9 7 7 7 7 7 9 12
25 26 26 25 24 22 23 27 25 25 23 22 21 19 18 16 14 13 13 13 12 11 7 7 7 6 6 6 9 12 13 14
29 29 29 27 25 24 25 25 24 23 22 21 20 19 18 16 14 13 13 13 13 12 10 12 5 6 7 8 12 15 16 17

GFSFLT1_con_lsi_078.txt.gz
Lid_Strength_Index
7 7 7 6 6 6 6 7 6 6 6 6 6 5 5 5 5 5 4 4 4 4 4 4 3 3 3 2 2 2 1 2
7 7 7 6 6 6 7 7 7 6 6 6 6 6 6 6 6 6 6 6 6 6 5 5 5 4 4 4 4 4 3 3
7 7 7 7 7 7 7 8 7 7 7 7 7 7 7 8 8 7 7 7 7 7 7 7 6 6 6 6 5 5 5 5
7 8 8 8 8 8 8 8 8 8 8 8 9 9 9 9 9 9 9 8 8 9 9 9 8 8 8 7 7 6 6 6
8 8 8 8 8 9 9 9 9 9 9 9 10 10 10 10 10 10 10 10 9 9 9 9 9 9 9 8 8 7 7 7
9 9 9 9 9 8 9 9 9 9 10 10 10 11 11 11 11 11 10 10 10 10 10 10 10 9 9 9 9 9 9 9
9 9 9 9 9 9 10 10 10 10 11 11 12 12 12 12 12 12 12 12 12 11 11 11 10 10 10 10 10 10 10 10
9 9 10 10 10 10 10 11 11 11 12 13 13 13 13 13 13 13 13 13 13 12 12 12 11 10 10 10 10 9 9 9
10 10 10 11 11 11 11 12 12 12 13 13 13 13 13 14 14 13 13 13 13 13 12 12 11 10 10 10 9 8 8 8
10 10 11 11 12 12 12 12 13 13 13 13 14 14 14 15 14 14 14 13 13 13 12 12 12 11 10 10 10 10 9 9
11 11 11 12 12 12 13 13 13 14 14 14 14 15 15 14 14 13 14 14 13 13 12 12 12 12 11 10 10 11 10 9
11 12 12 13 13 13 14 14 14 15 15 15 14 15 14 14 14 14 14 13 13 13 12 12 12 12 11 10 10 10 11 11
11 12 13 14 14 15 15 15 16 16 16 15 15 14 14 15 13 13 14 14 13 12 12 10 10 11 11 10 10 9 10 11
13 14 15 16 16 17 16 16 16 17 17 16 15 14 13 13 12 13 13 13 12 12 12 12 11 11 11 10 8 9 10 10
16 16 17 17 17 17 17 16 18 18 17 16 16 14 13 12 12 12 12 13 13 12 12 12 12 11 10 9 9 10 10 9
17 17 17 17 17 17 18 18 19 18 17 16 15 14 14 13 13 13 12 12 13 13 12 12 12 10 9 9 9 9 8 8
19 19 19 19 20 19 20 19 20 19 17 17 17 16 16 15 15 13 12 11 10 10 9 9 8 8 9 8 7 8 7 8
21 22 22 22 22 21 21 21 21 21 20 19 19 18 17 17 16 17 14 11 10 9 8 8 7 8 8 7 6 6 7 8
23 24 24 24 24 22 21 21 22 22 22 21 20 19 19 18 17 16 16 15 13 10 9 8 6 6 6 5 7 8 8 9
27 27 27 27 25 23 23 24 23 23 22 21 20 20 19 18 18 17 16 15 13 11 9 9 7 6 5 5 7 9 11 12

GFSFLT1_con_lsi_081.txt.gz
Lid_Strength_Index
6 6 6 6 6 5 5 6 5 5 5 5 5 5 5 5 5 5 5 5 5 5 4 4 4 4 3 3 2 3 2 2
6 6 6 5 5 6 6 6 6 6 6 6 6 6 6 6 6 6 6 6 6 7 6 6 6 5 5 5 5 5 5 4
6 6 6 6 7 7 7 7 7 7 7 7 7 7 8 8 8 7 8 7 8 8 8 7 7 7 7 7 6 6 6 6
6 6 7 7 8 8 8 8 7 7 8 8 8 8 9 9 9 9 9 9 9 9 9 9 8 8 8 8 8 7 7 6
7 7 8 8 8 8 8 8 8 8 9 9 9 9 10 10 10 10 10 10 10 10 10 9 9 9 9 9 9 8 8 8
8 8 9 9 9 9 9 9 8 9 9 10 10 11 11 11 11 11 11 11 11 11 11 10 10 10 10 10 10 10 10 9
9 9 9 10 9 9 9 9 9 10 11 12 12 12 12 12 12 12 12 11 11 12 12 12 11 10 10 11 11 11 11 10
9 9 9 9 9 9 10 10 10 12 13 13 13 13 13 13 13 12 12 12 12 12 12 12 12 11 10 11 12 11 11 10
8 9 9 9 10 10 10 11 12 13 13 13 13 13 13 13 13 13 13 13 13 13 13 13 13 11 11 11 11 11 10 10
8 9 9 10 11 12 12 12 13 13 13 13 14 14 14 15 14 13 13 14 14 13 13 14 13 11 11 11 12 12 11 11
10 10 11 12 12 13 14 13 14 15 15 14 14 15 15 14 15 14 14 14 14 14 13 13 14 11 11 11 12 12 11 10
11 12 13 13 13 14 14 15 15 16 16 16 15 16 15 15 14 15 14 14 15 15 14 13 12 12 10 10 11 11 12 11
13 13 14 15 15 16 16 16 16 17 17 17 17 16 15 15 15 14 14 14 14 14 13 12 11 11 10 10 10 10 11 11
13 15 16 17 17 17 17 18 18 20 20 19 17 16 15 15 15 14 13 13 13 13 13 12 11 11 10 10 10 10 10 10
15 16 17 18 18 19 19 19 22 21 19 17 17 16 15 14 13 13 13 13 13 13 13 13 12 12 11 11 10 10 10 9
17 18 19 19 20 20 21 21 21 20 18 17 16 16 16 15 14 14 13 13 14 13 13 13 13 12 10 9 9 9 9 9
20 20 21 21 22 22 22 22 22 21 19 18 18 17 17 17 16 14 13 13 12 12 12 12 10 9 8 8 8 7 7 8
21 22 22 22 22 23 23 22 22 22 21 20 19 19 19 18 18 19 17 14 14 12 11 10 10 9 8 7 7 6 6 8
23 24 24 25 25 23 22 23 23 23 22 21 20 19 19 19 19 19 20 20 19 15 13 11 10 9 8 6 6 7 6 7
25 25 25 26 25 23 25 24 24 23 22 21 21 21 21 21 20 20 20 19 18 16 14 11 9 8 7 6 7 7 8 9

GFSFLT1_con_lsi_084.txt.gz
Lid_Strength_Index
9 8 8 8 8 8 8 8 8 8 8 8 8 7 8 8 8 8 8 8 8 8 8 8 7 7 7 7 7 7 7 6
9 8 8 8 8 9 9 9 9 9 9 9 9 9 9 9 9 9 9 9 9 9 9 9 9 9 9 9 8 8 8 8
9 9 9 9 9 10 10 9 9 9 10 10 10 10 10 10 10 10 10 10 10 10 10 10 10 10 10 10 10 9 9 9
9 9 10 10 10 10 10 10 9 10 10 11 11 11 11 11 11 11 11 11 11 11 11 11 10 10 10 10 10 10 9 9
9 10 10 11 11 11 10 10 10 10 11 12 13 12 12 12 12 12 12 12 12 12 12 12 11 11 10 11 11 11 10 10
9 10 11 11 11 11 11 11 11 12 13 13 13 12 12 13 13 14 14 13 13 13 13 12 12 11 11 12 12 12 12 12
10 11 11 11 11 11 12 12 12 13 14 13 14 14 14 15 15 15 15 15 15 14 14 14 12 11 10 11 12 13 13 13
10 11 11 12 11 12 12 12 13 14 15 15 14 15 15 15 16 16 15 15 15 15 15 15 14 12 11 11 13 13 13 13
11 12 12 12 13 12 12 14 14 15 15 15 16 16 16 16 16 16 16 16 16 15 16 15 15 12 12 11 13 14 14 13
10 11 12 12 12 14 14 14 15 15 16 16 16 18 17 18 17 16 17 17 17 16 17 18 15 13 12 12 13 13 13 12
11 12 13 13 13 14 15 16 16 17 17 17 17 19 19 18 18 18 18 16 16 16 17 17 17 13 12 11 13 13 13 11
12 13 13 14 15 16 16 17 17 17 18 19 18 20 19 19 19 20 19 17 17 17 16 18 17 15 11 10 11 12 12 12
13 14 15 15 16 17 17 17 18 20 21 22 24 22 19 23 22 21 20 19 18 20 16 15 17 13 10 9 9 10 11 12
15 16 17 18 17 17 19 19 21 24 25 25 24 23 23 24 22 22 23 21 17 17 17 16 14 14 11 10 10 9 10 11
16 18 19 19 19 20 21 22 26 27 25 24 24 23 24 21 20 23 23 19 18 18 17 16 15 14 13 12 11 10 10 10
16 18 20 21 22 23 23 24 24 25 24 24 23 26 23 21 20 18 18 18 17 16 16 16 16 14 12 11 12 11 9 9
19 20 22 23 24 25 27 26 26 25 24 25 24 25 22 21 20 16 15 14 13 13 14 14 12 12 11 11 10 9 7 9
21 23 24 25 26 28 29 29 29 30 27 27 24 24 24 22 22 22 19 16 15 15 14 13 13 12 11 10 9 8 7 8
24 27 28 29 30 30 31 32 31 31 26 28 27 27 26 26 23 23 23 23 21 18 16 15 14 13 11 10 9 9 8 7
28 29 29 30 31 32 32 30 32 29 29 29 28 28 27 25 23 23 22 22 22 21 18 17 15 13 11 9 10 9 8 11

GFSFLT1_con_lsi_087.txt.gz
Lid_Strength_Index
10 10 10 9 9 9 9 9 9 9 8 9 9 9 9 9 10 10 10 9 10 10 10 10 10 9 9 10 9 10 10 9
10 10 10 10 10 10 9 9 10 10 10 10 10 10 10 11 11 10 10 10 11 11 11 11 11 10 11 11 11 11 11 10
10 10 10 11 11 11 11 10 10 10 11 11 11 11 11 12 11 11 12 12 12 12 12 11 11 12 12 12 11 11 11 10
10 11 11 11 11 11 11 11 11 11 11 12 12 12 12 12 13 13 13 13 13 12 12 12 12 13 12 12 12 12 12 11
10 11 11 11 11 11 11 11 11 12 12 13 13 13 13 14 14 13 13 13 13 13 13 13 14 13 13 12 13 13 13 12
10 11 11 11 11 11 11 12 12 13 13 14 14 14 14 15 14 15 15 14 14 14 15 15 14 13 13 14 14 14 14 14
10 11 12 12 12 12 12 13 14 14 15 15 15 15 15 15 15 15 15 15 16 16 16 16 14 13 12 12 14 14 14 14
10 11 11 11 11 13 13 14 15 16 16 16 16 15 16 16 16 16 16 16 17 17 16 16 16 13 12 12 14 14 14 14
10 11 11 12 12 13 14 16 16 16 16 16 16 16 16 16 17 17 17 17 17 17 17 17 16 13 12 12 14 14 15 14
10 10 12 13 13 14 15 15 15 16 16 16 16 17 18 19 19 18 18 18 19 17 19 20 17 14 12 12 14 14 14 14
11 12 13 14 14 15 15 16 17 16 16 17 17 20 20 19 20 19 19 18 18 17 19 19 19 15 13 12 15 16 14 13
12 13 13 14 15 15 16 16 16 17 18 19 19 21 20 20 20 21 22 21 23 20 19 20 19 18 13 12 13 14 13 12
13 14 14 14 14 16 16 17 18 20 21 22 22 20 20 25 24 25 26 25 22 22 20 20 19 16 13 12 11 11 13 11
14 16 16 17 15 17 18 19 21 21 22 22 23 23 24 26 25 24 26 26 23 21 20 19 18 18 13 12 12 11 11 11
16 17 19 19 19 19 20 21 21 22 21 22 23 24 26 23 22 26 27 26 23 23 21 19 18 17 17 15 12 11 11 10
17 18 20 20 21 21 21 21 22 23 22 23 24 25 25 23 25 22 22 23 25 25 22 19 18 16 13 13 13 12 12 11
18 19 21 22 23 24 23 23 23 23 24 24 25 26 25 26 26 21 19 17 16 14 15 16 14 13 12 12 11 11 10 11
19 21 22 24 25 26 26 26 26 27 26 27 25 27 28 28 28 26 23 18 17 16 15 14 14 13 13 12 12 11 10 12
22 24 24 27 28 29 29 29 29 29 27 30 30 31 31 29 29 29 27 25 24 19 17 16 15 14 13 13 12 15 12 11
26 27 27 28 30 31 30 30 31 30 31 31 30 29 28 29 28 28 27 25 24 23 20 20 17 15 13 13 17 16 13 12

GFSFLT1_con_lsi_093.txt.gz
Lid_Strength_Index
9 8 8 8 8 8 7 6 6 7 7 8 8 9 10 9 10 10 11 11 12 12 12 12 12 12 12 13 13 14 14 13
10 9 9 9 9 9 9 9 9 10 11 12 10 11 11 10 11 12 12 12 12 12 13 13 14 14 13 14 14 14 14 14
11 11 11 10 10 10 11 12 12 12 12 12 12 13 12 13 13 13 13 13 13 13 14 15 15 15 14 15 14 15 15 14
12 11 11 11 12 12 12 12 12 12 13 13 14 14 13 13 13 13 14 14 14 15 16 16 15 15 15 15 15 15 15 15
12 12 12 12 12 13 13 12 13 13 13 14 14 14 14 14 14 14 15 15 16 16 16 16 16 15 15 15 15 15 15 15
12 12 12 13 13 13 13 13 13 13 13 14 15 14 14 15 15 15 16 17 17 17 17 17 16 14 15 15 15 16 16 15
11 11 12 12 12 12 13 13 13 14 15 15 15 15 16 16 16 17 17 17 17 17 17 17 16 13 12 13 15 16 16 16
10 10 11 11 11 12 13 14 15 15 15 15 16 16 16 16 17 17 17 17 18 18 17 17 17 13 13 13 15 15 16 15
9 10 10 11 12 12 13 14 15 15 15 16 16 16 17 18 18 18 18 18 18 18 17 17 17 14 14 13 15 16 15 15
8 9 10 11 11 13 14 14 15 15 15 16 17 18 19 19 19 18 19 19 19 18 20 20 20 15 14 14 16 16 16 15
8 9 10 11 12 13 14 15 15 15 16 17 18 19 19 18 19 19 19 18 18 18 20 21 23 16 15 15 17 20 17 17
9 10 10 11 12 13 14 15 14 17 18 19 19 19 19 20 20 21 21 20 22 21 20 21 21 20 15 15 17 18 19 19
10 11 11 12 13 14 15 15 17 18 19 20 20 19 20 21 22 22 22 22 21 21 21 20 21 18 17 16 15 15 22 20
10 12 13 13 12 14 15 17 18 19 21 22 21 21 22 22 22 22 22 20 21 21 22 22 20 21 18 17 16 15 17 17
15 15 15 14 13 13 17 18 19 21 21 21 22 22 21 20 21 21 21 22 21 22 22 22 22 22 21 19 20 17 17 16
15 15 16 17 17 18 19 19 20 21 21 21 21 21 21 21 21 21 21 21 22 22 23 25 26 22 17 17 18 17 16 15
18 18 19 19 19 19 19 18 20 21 21 21 21 22 22 22 24 21 20 19 19 19 20 22 19 17 16 16 15 14 14 21
19 19 20 20 21 21 20 19 19 20 21 21 22 22 23 24 24 24 24 22 21 21 20 19 19 18 17 15 15 16 17 26
20 21 21 21 22 22 20 19 19 20 21 22 22 23 25 25 26 26 26 26 26 24 21 20 20 18 17 16 19 26 23 28
20 21 21 22 24 24 22 21 22 22 23 23 24 25 25 26 27 27 27 27 28 28 25 24 20 18 18 18 28 29 28 27

GFSFLT1_con_lsi_096.txt.gz
Lid_Strength_Index
9 9 8 8 8 8 8 7 5 3 2 4 6 8 8 8 9 10 11 11 11 13 13 13 12 12 13 14 15 15 15 15
10 9 9 9 9 8 8 6 6 5 6 7 9 10 10 10 11 11 12 12 13 13 14 14 13 13 14 15 15 16 16 15
11 10 10 10 9 8 9 7 7 7 7 9 11 11 12 11 12 12 12 13 14 14 14 14 14 15 15 16 16 16 16 16
11 11 11 11 11 9 9 10 9 9 9 11 12 12 12 13 14 13 14 15 15 15 15 15 16 16 16 16 16 16 15 15
12 12 12 12 12 11 11 10 10 10 11 12 13 13 13 13 15 15 15 15 15 16 16 16 16 16 16 16 16 16 15 15
11 12 12 12 12 12 12 11 11 11 11 13 14 14 15 15 15 15 15 16 16 16 17 17 16 15 16 15 16 16 16 15
11 11 11 12 12 12 13 13 12 12 13 14 14 16 15 15 16 16 16 16 17 17 17 18 16 13 13 15 15 15 15 15
11 11 11 11 12 13 13 14 15 14 15 15 15 15 16 16 16 16 17 17 17 17 18 18 17 13 13 13 15 15 15 16
10 10 10 11 12 12 14 14 15 15 15 16 16 16 16 17 17 17 18 18 18 18 18 18 16 14 14 13 15 15 15 16
8 9 10 11 11 13 14 15 15 15 15 16 15 16 17 17 18 18 18 19 19 18 20 20 19 15 13 14 16 16 16 16
9 9 10 11 11 13 14 14 14 15 15 15 16 16 17 18 18 18 19 19 19 19 21 21 20 15 14 15 16 18 17 17
9 10 10 11 12 13 14 14 13 15 16 16 17 17 17 18 19 19 20 21 22 21 21 20 19 18 15 15 16 17 18 19
9 10 10 11 12 13 13 13 15 16 16 17 17 17 18 19 20 21 21 21 22 21 21 20 19 18 17 16 15 15 19 19
11 13 13 13 12 12 13 15 16 16 18 19 19 19 19 21 21 21 21 20 21 20 21 20 19 19 18 17 16 15 17 17
15 15 16 14 13 13 17 16 16 17 19 19 20 21 21 20 20 21 20 20 20 20 20 21 21 21 20 19 18 17 17 16
16 17 17 17 17 17 16 16 17 18 20 20 20 21 21 20 20 20 20 19 20 20 21 22 22 21 17 17 18 19 18 20
18 18 19 18 19 18 17 16 18 20 20 20 21 21 21 21 22 18 18 18 18 18 19 20 19 17 17 16 16 15 16 24
19 19 20 20 20 19 17 17 18 19 20 20 20 21 21 22 22 23 22 20 19 19 20 19 19 18 17 16 16 18 19 26
20 20 20 21 22 22 19 18 18 19 20 20 20 21 21 22 22 21 22 24 25 22 21 20 20 19 18 18 21 25 26 29
22 23 22 22 23 22 19 19 19 20 20 20 21 21 22 22 23 24 24 24 25 26 24 23 21 20 20 21 28 29 30 30

GFSFLT1_con_lsi_102.txt.gz
Lid_Strength_Index
10 9 7 7 6 4 2 2 1 1 1 1 1 1 0 0 1 3 5 7 8 9 9 9 9 9 9 9 10 10 10 10
11 9 7 6 6 5 5 3 1 1 1 1 1 1 1 2 3 4 8 9 10 10 10 11 10 10 10 10 11 11 11 11
10 9 8 7 6 5 5 5 3 1 1 1 1 3 4 4 6 8 9 11 11 12 12 12 11 11 11 12 11 11 11 11
9 9 9 8 7 7 5 5 5 4 1 3 4 4 5 6 8 9 11 12 13 13 12 12 11 11 11 12 12 11 11 12
9 9 9 8 8 7 6 5 5 4 4 3 4 4 5 7 8 10 12 12 14 13 13 12 11 12 12 12 12 12 11 12
9 9 9 8 8 8 7 6 5 5 5 5 6 6 7 9 10 12 13 13 14 14 13 12 12 12 12 12 12 12 12 13
9 9 9 8 8 8 8 8 7 6 6 6 9 11 11 11 12 13 15 15 14 14 14 13 13 12 12 12 12 13 14 14
8 8 8 8 8 9 8 9 8 8 10 11 11 12 12 13 14 14 16 15 15 14 13 13 12 12 12 12 13 14 14 14
7 8 8 8 9 8 10 11 11 10 11 12 13 13 14 14 15 17 16 16 16 15 13 13 12 11 11 13 14 14 14 14
7 8 8 8 8 10 11 12 12 13 12 12 12 14 15 15 15 15 16 17 15 16 14 13 12 11 12 14 14 15 15 15
7 8 9 8 8 10 11 12 12 13 13 13 14 14 14 15 15 16 16 15 17 15 14 14 13 12 13 14 14 15 15 15
8 8 9 9 11 11 11 12 11 12 13 13 13 13 13 15 15 15 16 16 15 16 16 15 14 13 12 13 14 15 16 16
9 9 9 11 11 12 12 12 13 14 14 14 13 14 15 15 16 15 15 16 16 16 16 16 15 14 13 14 15 15 16 16
11 11 11 12 11 12 12 13 14 14 14 14 14 14 15 16 16 16 15 16 17 17 18 18 17 16 15 15 15 15 16 16
12 12 12 13 13 12 13 13 14 14 14 15 15 16 15 15 15 15 16 16 17 17 18 18 19 18 17 17 15 15 16 15
14 14 14 14 13 13 14 14 14 13 14 14 14 15 15 15 15 16 15 15 17 16 17 18 19 18 17 17 17 16 15 15
15 15 15 15 15 14 14 13 14 15 16 15 16 16 16 17 17 16 16 15 15 15 15 17 16 16 16 15 15 14 14 17
17 17 17 16 16 16 15 14 15 15 16 16 17 17 18 18 18 19 17 16 16 15 16 16 16 15 14 14 15 15 16 18
18 18 18 18 19 19 16 15 15 15 16 16 17 17 17 17 17 18 19 19 18 16 16 16 15 15 15 15 15 18 19 19
19 20 20 20 20 19 18 16 16 16 17 17 17 17 17 17 18 18 19 18 19 21 18 17 16 16 15 15 18 19 19 21

GFSFLT1_con_lsi_105.txt.gz
Lid_Strength_Index
7 6 6 5 4 2 1 2 1 1 1 1 1 1 1 1 1 1 1 3 4 5 6 7 8 8 7 8 8 9 9 9
7 7 7 7 6 6 4 2 2 1 1 1 1 1 1 1 1 1 2 4 5 7 8 8 9 9 9 9 9 10 10 10
8 8 8 8 7 8 7 5 2 1 1 1 1 1 1 1 1 2 3 5 6 8 10 11 10 10 10 11 10 11 11 11
7 8 8 7 7 7 7 7 5 3 1 1 2 1 1 1 3 5 6 7 9 11 11 12 11 11 11 11 11 11 11 11
7 7 7 7 7 7 7 6 6 6 4 2 2 2 2 3 5 7 8 10 11 11 12 12 12 12 11 12 11 11 11 11
7 7 7 7 7 6 6 6 6 6 6 5 4 4 5 8 8 10 11 10 11 12 13 13 13 13 12 12 12 12 12 12
7 7 7 7 7 7 6 6 6 6 7 6 7 9 10 10 10 12 13 13 12 14 14 15 14 12 12 13 12 13 13 13
6 7 6 6 6 7 6 6 7 7 10 10 12 13 12 12 13 13 13 14 14 13 15 14 15 12 12 13 13 13 12 13
6 6 5 5 6 6 6 7 9 9 11 12 12 13 14 14 13 13 14 14 14 14 15 15 15 12 13 12 13 13 13 13
6 6 6 5 6 6 9 9 10 11 11 12 13 14 15 14 15 15 15 15 15 15 15 15 13 13 12 13 13 13 14 14
6 6 6 6 7 9 10 10 11 11 11 12 13 14 14 15 15 15 14 15 16 16 15 14 14 11 13 12 13 15 15 15
6 7 7 8 9 10 11 11 11 12 13 13 13 14 13 13 14 15 15 16 15 15 15 14 13 13 12 13 14 14 15 15
8 8 8 10 10 11 11 12 13 13 14 14 14 14 14 14 14 14 15 16 16 16 17 15 14 13 12 12 13 13 14 15
11 11 11 12 12 12 12 13 14 14 15 14 14 14 14 15 15 15 15 15 16 17 17 17 16 14 12 13 13 13 15 15
13 13 14 13 13 13 13 14 14 14 14 14 14 14 14 14 15 15 16 16 16 17 17 17 17 16 15 14 14 14 15 15
15 15 15 14 14 14 14 14 14 13 14 14 14 14 15 15 15 15 14 14 15 15 15 17 18 16 15 15 16 16 16 16
16 16 16 16 16 16 15 14 14 14 14 14 14 15 15 15 16 15 14 14 13 13 14 15 15 15 15 15 15 15 14 16
17 18 17 17 18 18 17 15 15 14 14 15 16 16 16 16 17 18 16 15 15 14 14 15 15 14 15 14 14 14 14 17
19 20 19 19 20 20 18 16 16 15 16 15 15 15 16 16 16 16 17 18 17 15 15 15 14 14 14 13 13 15 14 17
21 22 22 22 22 21 19 17 16 15 15 15 15 15 15 15 16 16 17 17 17 18 17 16 14 13 13 13 16 18 19 19

GFSFLT1_con_lsi_108.txt.gz
Lid_Strength_Index
10 9 9 6 4 4 3 3 2 2 1 1 1 1 1 1 1 1 2 3 3 3 5 6 6 7 8 9 9 8 9 10
11 10 10 9 8 6 4 3 3 2 2 2 2 1 1 1 1 1 2 3 4 5 7 7 8 8 9 10 10 10 11 11
10 10 10 10 10 10 9 7 5 3 3 3 2 2 2 2 2 3 3 4 5 7 8 8 9 10 11 11 11 11 12 12
10 10 10 10 10 9 9 9 9 8 5 4 4 3 3 3 4 5 6 6 7 7 8 10 10 11 11 12 13 12 12 12
10 10 9 9 9 9 9 8 9 8 7 6 5 4 4 3 5 6 7 8 9 8 9 9 10 12 12 12 13 13 12 13
10 9 9 9 9 8 8 8 8 8 8 7 6 5 5 6 7 8 9 9 9 10 10 11 12 12 13 13 14 13 14 13
10 9 9 9 9 8 8 8 8 8 9 8 8 8 9 10 11 12 12 12 12 12 12 13 12 13 12 14 14 14 14 14
9 9 9 9 8 8 8 7 8 10 11 12 12 13 12 12 13 13 13 14 13 13 14 14 14 12 12 13 13 14 15 15
9 9 9 8 8 8 8 9 10 11 12 12 13 13 14 14 14 14 14 14 14 14 14 14 15 11 12 12 14 15 15 15
9 9 9 9 9 9 11 11 12 12 12 13 13 15 14 14 15 15 15 15 15 15 15 15 14 12 12 13 15 15 14 15
9 9 9 10 10 12 12 12 12 12 12 13 14 14 13 14 15 16 16 15 15 15 15 14 13 12 12 13 15 15 15 15
9 10 10 11 12 12 12 13 12 13 14 15 16 15 13 14 16 15 16 16 15 15 14 14 13 13 13 13 15 15 16 16
11 12 12 13 13 13 14 14 16 16 17 17 17 16 14 14 15 15 16 16 16 16 16 15 14 13 12 13 13 14 16 17
14 14 15 15 14 15 15 16 17 18 19 19 18 14 14 14 15 16 15 16 16 16 16 16 15 13 12 13 13 13 15 15
16 17 17 16 16 17 16 17 17 18 19 18 18 18 16 15 15 15 15 15 16 16 16 17 16 15 14 14 14 14 15 14
18 18 18 18 18 18 16 17 15 18 18 18 18 18 18 16 15 15 15 14 15 15 15 16 17 15 14 14 15 15 16 16
19 19 19 19 20 20 19 18 18 19 19 19 19 19 19 19 20 14 14 13 13 13 14 15 15 14 13 13 13 13 14 17
21 21 21 22 23 22 21 19 19 19 19 20 19 20 21 21 20 20 17 14 14 13 13 14 14 14 13 13 13 13 14 17
24 24 25 25 25 24 23 21 20 21 20 20 21 21 21 21 21 21 21 21 18 14 14 14 14 13 13 13 13 15 14 16
27 27 27 27 26 26 24 23 23 22 22 22 22 22 21 22 22 22 21 21 20 17 16 15 13 13 13 12 14 15 16 17

GFSFLT1_con_lsi_111.txt.gz
Lid_Strength_Index
11 10 9 6 4 3 2 2 2 2 1 2 2 2 2 1 1 1 1 2 2 2 2 2 3 4 5 6 7 7 9 9
12 11 10 10 7 5 3 3 3 2 2 2 2 2 2 2 1 1 2 2 3 3 3 4 5 6 6 6 8 8 10 12
10 10 10 11 11 10 9 6 4 4 3 3 3 3 2 2 2 2 3 2 3 3 4 5 6 7 7 9 9 9 12 12
10 11 11 11 10 11 10 10 9 7 5 4 4 3 3 2 2 3 3 3 3 4 5 7 8 8 8 8 10 10 11 11
11 11 10 10 10 10 9 9 9 9 9 7 6 5 4 4 5 6 6 6 6 5 6 7 8 8 8 9 11 11 11 12
11 11 10 10 10 9 9 9 8 8 8 8 8 6 5 6 6 7 7 7 8 8 9 9 9 9 9 10 11 12 13 13
10 11 10 10 10 9 9 8 8 8 8 9 9 8 9 9 10 9 10 10 10 10 10 10 9 10 11 11 12 14 14 14
10 10 11 11 10 10 9 9 9 9 11 11 11 10 11 12 11 11 11 12 12 12 13 13 12 11 11 12 13 14 14 14
10 10 10 10 9 9 9 10 11 12 12 12 12 12 12 11 11 12 12 12 13 13 13 13 14 11 11 12 14 14 14 14
10 10 10 10 10 11 12 12 12 12 12 12 12 15 13 13 13 12 13 14 13 14 13 14 14 11 11 12 14 15 14 14
10 11 11 12 11 13 13 13 12 12 12 13 14 15 13 13 14 15 15 14 14 14 14 14 14 11 11 13 14 14 15 15
11 12 12 13 13 13 14 14 14 14 14 15 16 14 13 13 15 14 15 15 14 15 15 14 14 13 11 12 14 14 15 15
13 14 14 14 14 14 14 15 16 17 17 17 15 14 13 13 14 14 14 15 15 15 15 15 15 13 12 11 13 13 16 15
15 15 16 16 15 15 16 16 17 18 19 15 17 13 14 13 14 15 14 15 16 16 16 16 15 14 12 12 12 13 15 15
17 18 18 18 18 17 17 16 15 19 19 19 19 19 17 14 14 14 14 15 15 15 15 16 15 14 13 13 13 13 14 14
19 19 20 20 20 21 19 19 18 19 19 19 20 21 20 18 16 15 15 14 15 15 15 16 16 14 13 13 14 14 14 15
21 21 22 23 23 22 22 20 20 19 19 20 20 21 20 21 21 14 14 13 12 12 14 15 14 13 12 12 12 13 13 16
23 24 25 25 25 25 24 22 21 21 21 22 21 22 22 23 23 22 19 13 13 12 13 13 13 12 12 11 11 11 12 17
26 27 28 28 27 26 25 23 23 23 22 23 23 23 23 23 23 24 24 23 17 14 14 13 13 13 12 12 12 14 13 15
29 30 29 28 28 27 26 24 24 22 23 24 25 24 24 24 24 24 24 24 22 18 16 16 13 13 12 12 14 15 15 15

GFSFLT1_con_lsi_114.txt.gz
Lid_Strength_Index
10 10 9 6 3 2 2 3 3 3 3 3 2 2 1 2 2 1 1 1 2 2 2 2 2 3 3 3 2 3 3 4
11 11 12 10 6 5 4 3 3 2 2 2 2 2 2 2 2 2 1 1 2 2 2 2 2 2 3 3 4 5 4 8
11 11 11 12 11 8 5 5 4 4 3 3 2 2 3 3 3 2 2 2 2 2 2 3 3 3 4 4 5 6 7 9
11 11 11 11 11 11 10 10 9 6 5 5 5 3 3 3 3 3 3 3 3 3 3 3 3 4 5 4 6 7 7 8
11 11 11 11 10 10 10 10 10 10 9 8 7 5 5 4 4 4 3 3 3 3 3 4 5 6 6 6 7 8 8 9
11 11 11 11 10 10 10 10 9 9 10 10 9 8 7 6 5 5 6 6 6 6 7 7 7 7 7 7 7 8 9 10
11 11 11 10 10 10 10 10 9 10 10 10 10 10 9 9 9 9 9 10 11 11 11 10 8 9 10 9 9 11 11 13
10 10 10 10 10 10 10 10 10 10 11 11 12 11 11 11 11 11 11 11 11 11 11 11 10 10 10 11 11 12 13 13
10 10 10 10 10 10 11 11 12 12 12 12 12 13 13 11 12 12 12 12 12 11 11 11 12 10 9 11 12 12 13 13
10 10 11 11 11 12 13 13 13 13 13 13 13 16 13 13 12 12 13 13 13 14 13 13 13 11 10 11 13 14 14 14
11 12 12 13 13 14 14 14 14 14 13 13 14 15 13 13 14 14 14 14 14 14 14 13 13 11 10 12 13 14 15 14
13 13 14 14 14 14 14 15 15 15 15 15 15 13 13 13 14 14 14 14 14 14 14 14 13 13 10 11 13 14 14 15
14 16 16 15 14 15 15 16 17 17 16 14 13 13 13 13 13 13 13 14 14 14 14 15 14 12 10 11 12 12 14 14
16 17 17 16 15 15 16 15 17 17 15 15 14 13 13 13 14 14 14 14 15 15 15 15 15 14 11 11 12 12 14 14
17 19 19 19 18 18 17 16 20 19 19 19 19 20 15 14 14 14 14 15 15 15 15 15 15 14 13 13 12 13 13 13
19 20 21 21 21 22 20 20 19 19 20 20 20 21 21 19 18 15 15 14 14 14 14 15 15 14 12 13 13 13 13 14
22 23 24 24 24 24 23 21 21 20 20 20 20 21 21 21 20 14 13 12 12 12 14 18 13 12 11 11 12 12 12 17
24 25 26 26 25 26 25 23 22 21 21 21 21 21 23 23 23 22 19 14 12 12 12 12 12 12 11 11 11 11 11 17
27 28 28 27 28 27 26 24 24 24 24 24 25 25 25 25 25 26 25 24 18 15 14 13 13 13 12 12 11 13 12 14
29 30 29 29 29 29 28 26 26 24 25 27 27 26 26 26 25 26 26 26 20 18 19 19 14 13 13 12 15 15 15 15

GFSFLT1_con_lsi_117.txt.gz
Lid_Strength_Index
9 9 8 7 4 2 2 3 3 3 3 3 3 2 2 2 2 2 1 1 2 2 1 1 1 1 2 2 2 3 3 3
11 11 11 9 5 4 3 2 3 3 4 4 3 2 2 2 2 2 2 2 2 2 2 2 2 2 2 2 2 3 3 3
12 11 11 11 8 5 5 4 4 3 3 4 4 4 3 3 3 3 3 3 3 3 3 3 2 2 2 3 3 3 4 4
12 12 12 11 11 11 9 7 6 5 5 4 4 4 3 3 4 4 4 3 2 2 3 3 2 2 2 2 3 4 4 4
12 12 11 11 11 10 10 10 10 10 8 7 7 6 6 5 4 3 3 2 3 3 2 2 2 3 3 3 4 4 5 5
12 11 11 11 10 10 10 10 10 10 10 10 10 9 9 8 8 7 6 5 5 5 5 6 6 6 6 6 6 7 8 9
11 11 10 10 11 11 11 10 9 9 10 10 10 11 9 9 10 10 10 9 9 10 10 9 8 10 9 9 9 9 10 11
10 10 10 10 10 10 10 10 10 10 12 12 12 12 12 12 12 12 11 11 11 11 11 11 10 10 9 10 10 11 10 12
10 10 10 10 10 10 11 11 11 12 13 13 13 13 13 12 12 12 12 13 12 12 12 11 12 10 9 10 11 11 11 12
10 10 11 11 11 12 13 13 13 14 14 14 14 15 14 13 12 13 13 14 13 14 14 14 13 11 10 10 13 12 13 13
12 12 12 13 13 13 14 15 15 15 15 15 15 15 14 14 14 15 14 14 14 13 13 14 13 11 10 11 13 13 14 14
13 14 15 14 14 15 16 16 16 16 16 15 15 14 14 14 14 14 14 14 13 13 13 13 13 12 10 11 13 13 14 14
16 16 16 15 15 16 16 16 17 16 15 14 14 14 13 13 13 13 13 13 15 14 14 14 14 12 11 11 12 12 13 13
17 17 18 17 16 16 16 16 18 15 16 15 14 13 13 13 13 13 13 14 15 15 14 15 14 14 11 11 11 11 13 14
18 19 20 20 19 18 18 18 19 18 18 19 19 16 14 14 14 14 14 14 14 14 14 15 15 14 13 13 13 13 13 13
20 21 21 21 21 22 20 19 18 19 19 19 20 21 20 19 17 16 15 14 15 15 15 16 15 15 12 12 13 15 14 16
22 22 23 23 24 24 23 21 21 20 20 20 21 22 22 22 21 14 13 12 12 12 15 20 13 12 12 11 11 12 12 15
25 25 25 25 26 26 25 23 22 22 22 23 22 23 24 24 22 22 20 14 13 13 13 13 13 13 12 11 11 11 13 19
27 28 27 27 28 28 27 24 24 25 25 26 26 25 25 24 26 26 25 24 20 16 15 14 13 13 13 13 12 14 13 15
29 30 29 29 29 29 28 27 27 25 26 28 27 27 26 25 24 25 26 25 20 21 20 22 15 13 13 13 15 15 16 16

GFSFLT1_con_lsi_123.txt.gz
Lid_Strength_Index
9 9 8 7 7 6 4 3 2 1 2 2 1 1 1 1 1 1 1 2 3 3 3 2 2 2 2 1 2 2 2 2
11 11 11 10 10 8 5 3 2 2 2 2 2 1 1 1 1 1 2 2 3 3 3 2 2 2 2 2 2 3 3 2
12 12 12 11 11 9 7 5 3 3 2 2 2 1 1 2 1 2 2 2 2 3 3 3 2 2 3 3 3 3 3 3
10 11 12 12 11 11 9 6 4 4 4 4 3 2 2 2 2 2 2 3 3 3 3 3 3 3 3 2 2 2 3 3
10 10 10 11 11 11 10 10 9 7 5 5 5 4 4 4 4 4 3 3 3 3 3 3 3 2 2 2 2 2 3 4
10 10 10 10 10 10 11 10 10 10 10 10 9 9 8 8 7 8 8 7 6 5 5 6 7 8 6 5 6 6 7 8
10 10 10 10 10 11 11 11 10 10 10 10 10 9 8 9 9 9 9 10 10 10 10 10 10 10 10 8 8 9 9 10
9 9 9 10 11 10 10 11 11 11 12 12 11 11 11 11 11 11 11 11 11 11 11 11 11 10 10 10 9 10 10 11
9 10 10 11 10 10 10 11 12 13 13 12 12 12 12 11 12 12 12 12 12 12 12 12 12 11 10 11 10 11 11 11
6 9 10 10 11 11 12 13 13 13 13 13 12 13 12 12 12 12 13 13 13 13 14 14 14 11 10 12 13 13 13 13
9 10 10 11 12 13 13 13 13 13 13 13 13 13 13 13 13 14 14 14 14 15 15 15 14 10 11 13 14 14 13 13
11 11 12 13 13 13 14 14 14 14 14 14 14 14 13 14 14 14 14 14 14 15 15 14 14 13 12 12 13 13 14 14
14 14 14 14 14 14 14 15 15 15 14 14 14 14 14 14 14 14 14 14 14 14 15 15 14 12 11 10 11 12 13 13
15 16 16 15 14 15 16 16 16 14 14 14 14 14 14 14 14 14 14 14 15 15 14 15 14 12 11 11 11 12 13 13
16 18 19 19 18 18 17 16 15 15 15 15 15 15 15 14 14 14 14 14 14 14 15 15 14 14 13 13 13 13 13 12
19 20 21 21 21 21 19 18 17 17 17 17 17 16 17 16 15 15 15 14 15 15 15 15 15 14 12 12 14 14 14 15
22 22 23 23 24 23 21 19 19 20 19 19 19 19 17 16 15 13 13 13 13 13 15 14 12 11 11 11 12 12 13 17
25 25 25 25 26 25 23 20 19 20 20 20 20 20 20 18 17 17 16 14 14 13 13 13 13 12 11 11 11 12 13 15
26 27 26 27 28 27 24 22 22 21 21 21 21 21 21 21 21 20 20 19 19 17 15 13 13 13 12 12 12 13 14 15
28 28 28 28 29 27 24 24 24 23 23 23 22 22 22 22 22 21 20 21 21 22 18 19 15 15 15 15 16 15 16 16

GFSFLT1_con_lsi_129.txt.gz
Lid_Strength_Index
6 5 5 5 5 5 5 4 2 2 1 1 1 1 1 1 1 1 1 0 1 1 0 0 0 0 0 1 1 2 2 2
6 5 4 4 5 6 6 5 4 2 1 1 1 1 1 1 1 1 1 1 1 1 1 1 1 1 1 1 2 2 2 2
4 3 4 5 5 5 6 6 5 4 3 2 1 1 1 1 1 1 1 1 1 1 1 2 1 1 1 2 2 2 3 3
5 4 4 4 4 5 5 6 6 3 2 2 1 1 1 1 1 1 1 1 1 1 1 2 2 1 1 2 2 2 3 3
5 4 4 4 4 4 4 5 5 6 2 2 2 1 1 1 1 1 1 2 2 1 1 1 1 1 1 2 2 2 2 3
5 5 4 4 3 3 4 4 5 5 5 3 2 1 1 1 1 2 2 2 2 3 2 2 2 2 2 2 2 3 3 5
7 6 6 5 5 3 3 4 5 5 5 5 5 5 4 3 5 6 7 7 7 7 7 5 7 11 10 7 6 6 7 8
8 7 7 6 6 5 3 4 5 5 5 7 7 7 6 7 8 9 8 8 10 9 9 10 10 9 10 10 7 8 8 9
8 8 7 7 6 6 5 4 5 6 6 9 9 9 9 9 10 10 10 10 10 11 10 11 11 10 10 10 9 10 11 11
9 8 8 8 7 8 8 6 6 7 8 10 10 10 10 11 9 9 11 12 12 12 12 12 12 10 10 11 12 13 13 13
10 9 10 9 9 11 10 8 7 8 9 10 10 11 10 10 11 12 13 13 13 14 13 14 13 11 11 11 13 13 13 13
11 11 11 11 12 13 11 10 10 11 11 12 12 12 10 12 13 13 13 13 14 14 14 13 13 12 12 12 13 13 13 13
13 13 12 12 13 14 13 12 13 12 12 12 12 13 12 13 13 13 13 14 14 14 14 14 13 12 12 12 12 12 13 14
15 15 14 13 14 15 14 14 14 13 13 13 13 13 13 13 13 13 13 13 14 14 14 14 14 13 12 12 12 12 13 13
17 18 17 16 16 16 16 17 15 13 13 14 14 13 13 13 13 13 13 13 14 14 14 14 14 14 13 13 13 13 13 13
19 20 20 19 19 18 18 18 17 14 15 14 14 14 15 15 14 15 14 13 14 14 14 14 15 14 13 13 14 14 13 14
21 21 22 21 21 21 21 20 18 16 16 16 16 15 15 15 15 13 13 13 13 13 13 14 13 12 13 13 13 13 13 14
22 23 23 23 23 23 22 20 17 15 17 17 17 16 16 16 16 18 16 14 13 13 13 13 12 12 12 12 13 13 13 14
23 23 23 23 23 22 22 20 18 17 17 18 17 17 17 16 17 17 17 18 19 16 16 14 14 13 12 12 12 14 13 14
23 23 23 24 24 23 22 21 20 20 20 19 19 19 18 18 18 18 18 19 20 19 18 19 16 15 15 15 15 15 15 16

GFSFLT1_con_lsi_132.txt.gz
Lid_Strength_Index
8 8 7 7 7 7 7 7 6 5 4 3 2 2 1 1 1 1 1 1 2 2 2 1 1 1 1 1 1 2 2 2
8 8 8 8 7 7 8 8 7 6 5 4 2 2 2 2 1 1 1 2 2 2 2 2 2 1 2 1 1 2 2 2
7 7 6 7 7 7 8 8 7 7 5 5 4 3 2 2 2 2 2 2 2 2 2 2 1 1 1 1 1 2 3 3
8 7 7 7 6 6 6 7 7 7 7 4 4 3 3 2 2 2 2 2 2 2 2 2 2 2 2 2 2 2 3 3
9 9 8 7 7 7 6 6 6 7 7 7 3 3 2 2 2 2 2 2 1 1 2 2 2 2 2 2 2 3 3 3
9 9 8 8 8 8 7 7 6 6 7 7 6 3 3 5 4 4 4 5 5 3 3 2 3 3 3 2 2 3 3 5
9 9 10 9 9 9 8 7 7 7 6 6 7 7 6 6 7 7 7 7 7 7 8 7 7 10 10 8 5 5 6 7
11 10 10 10 10 11 10 9 9 8 6 8 8 9 9 9 9 9 8 8 9 9 9 9 9 9 9 10 7 7 8 9
12 11 11 10 10 11 11 12 11 9 8 9 10 11 11 11 10 10 10 10 10 10 10 10 11 10 9 10 9 10 10 11
12 12 12 11 11 12 12 12 12 11 11 11 11 11 11 11 11 10 11 11 11 12 13 13 12 10 10 11 12 13 13 13
13 13 13 13 13 13 13 13 13 12 12 12 11 11 11 10 11 13 13 13 13 13 14 14 13 11 10 11 13 14 14 14
15 15 15 15 15 15 14 14 13 14 13 12 12 12 11 11 13 13 13 13 13 13 14 13 13 12 11 11 13 13 14 14
17 17 17 16 16 16 17 15 15 15 15 13 12 12 12 12 12 13 13 13 13 14 14 14 14 13 11 11 12 12 13 14
18 19 18 18 18 19 18 17 17 17 16 13 12 12 13 13 13 13 12 12 13 14 14 14 14 14 12 12 11 12 13 13
20 20 21 20 20 20 20 19 20 20 17 14 12 12 12 13 13 13 13 13 13 14 14 15 14 14 14 14 14 13 13 13
21 21 22 21 22 21 21 21 21 20 18 15 13 12 14 14 14 15 14 13 13 13 14 14 15 14 13 14 14 14 14 14
23 23 23 23 23 22 22 22 22 20 17 14 14 14 14 15 14 12 13 12 12 12 13 14 13 12 13 13 12 13 13 15
24 23 23 23 23 23 22 22 21 20 17 15 15 15 15 15 16 17 15 12 12 12 12 12 12 12 13 13 13 13 14 16
24 24 24 23 24 23 22 22 20 20 19 17 17 16 15 15 16 16 18 19 19 16 16 14 13 12 12 13 14 16 15 16
24 25 25 24 24 22 22 21 20 20 20 19 19 18 18 17 18 18 19 21 22 21 20 19 16 16 17 17 20 20 21 20

GFSFLT1_con_lsi_138.txt.gz
Lid_Strength_Index
9 9 9 9 9 9 8 8 8 8 8 7 7 6 5 4 3 2 1 1 1 1 1 1 1 1 1 2 1 2 2 2
10 10 10 9 10 10 10 9 9 9 9 9 8 7 6 5 3 3 1 1 1 1 1 1 1 1 1 1 1 2 2 2
11 11 11 10 10 10 11 10 10 10 10 9 8 8 7 7 4 3 3 2 1 1 1 2 2 1 1 2 2 2 2 2
12 12 12 12 11 11 11 12 11 11 10 10 9 8 8 7 6 5 4 2 2 2 2 2 2 1 1 1 2 2 2 2
13 14 13 13 13 12 12 12 12 12 11 11 10 10 10 9 8 7 6 4 2 3 3 2 2 2 2 2 2 2 2 2
14 14 14 15 15 13 14 14 13 13 12 12 10 11 11 11 10 10 9 7 6 4 4 4 4 3 6 3 2 2 2 3
15 15 15 16 16 14 16 16 15 14 13 13 12 12 12 11 11 11 10 9 8 8 7 7 5 7 8 9 7 6 5 4
16 16 16 17 15 17 17 16 16 15 14 15 14 15 14 13 12 11 10 9 9 9 8 8 8 8 8 9 8 7 5 6
17 17 17 17 17 18 17 17 17 17 16 17 17 17 16 15 13 12 11 10 9 9 8 9 9 8 8 9 9 8 8 8
17 17 17 18 18 18 18 18 18 18 19 19 18 18 18 17 15 13 11 11 10 9 10 10 10 9 9 9 11 11 11 11
18 18 19 19 19 19 19 19 19 19 19 19 19 18 18 17 16 13 11 11 11 10 10 11 12 10 9 10 12 12 13 13
20 21 20 20 20 20 20 20 20 20 20 20 19 19 19 18 15 14 12 11 11 11 11 11 12 11 10 9 11 12 12 13
22 22 21 20 21 21 21 20 20 21 21 21 21 20 18 18 16 14 12 11 11 11 11 11 12 12 11 10 9 10 12 13
22 22 21 21 21 22 21 20 21 22 22 22 21 20 19 18 16 13 11 11 11 11 11 11 12 12 11 10 9 9 11 12
22 23 23 22 22 22 21 21 22 23 22 21 20 19 18 16 14 13 12 11 11 11 11 11 12 12 12 13 12 12 12 11
23 23 24 23 23 23 21 22 22 22 21 20 19 19 18 16 14 12 12 12 12 11 11 11 12 11 11 12 12 13 13 13
24 24 25 25 24 24 22 22 22 22 20 20 19 18 17 16 12 11 11 12 12 12 10 11 10 10 11 11 11 11 12 14
25 25 26 26 25 23 23 22 22 22 20 20 19 19 18 17 17 18 16 14 13 13 13 12 10 10 10 12 13 12 14 16
28 28 28 28 27 23 23 23 22 21 20 21 20 20 20 20 19 20 20 20 18 16 16 14 14 14 14 14 16 19 19 21
33 30 29 28 26 23 23 23 23 21 21 21 21 21 21 21 21 21 21 22 21 19 18 19 16 16 17 18 22 22 23 23

GFSFLT1_con_lsi_141.txt.gz
Lid_Strength_Index
12 12 11 11 11 11 11 11 11 11 10 9 8 8 7 6 6 6 4 3 2 1 1 1 1 1 1 1 1 1 2 2
12 12 12 12 12 12 12 12 12 12 11 10 9 8 8 8 8 7 6 6 5 3 2 1 1 1 1 1 1 2 2 1
13 14 14 13 13 13 12 13 13 13 11 11 11 9 10 11 10 9 8 7 7 5 2 1 1 1 1 2 1 2 2 2
14 14 14 15 15 14 14 15 14 14 12 12 12 12 11 12 11 10 10 9 8 6 5 3 3 1 1 1 1 2 2 2
15 15 15 16 16 15 16 16 16 15 14 13 13 13 12 13 12 11 10 10 9 8 7 6 4 3 2 2 1 1 1 1
15 16 16 17 17 16 17 17 16 16 15 15 15 15 15 15 14 13 12 11 10 9 9 8 7 6 5 5 5 5 4 2
16 17 18 18 18 18 18 18 17 17 17 16 17 17 17 16 16 15 14 12 11 10 10 9 8 8 8 7 7 7 6 5
18 18 19 19 19 20 19 18 18 18 17 18 18 19 18 18 17 17 15 13 12 11 10 10 9 8 8 8 8 8 7 7
19 20 20 19 20 20 19 19 19 18 19 19 19 19 18 18 18 18 16 15 13 11 11 10 9 8 8 9 8 8 8 8
19 20 20 20 20 20 19 19 19 20 20 20 19 19 19 19 19 18 17 16 14 12 11 11 11 9 8 9 9 10 10 10
20 20 21 21 20 20 20 20 21 21 20 20 20 20 20 19 19 18 17 16 14 12 11 11 11 9 9 9 10 11 11 10
21 22 22 21 20 21 21 21 21 21 21 21 21 21 20 19 18 18 17 16 14 12 11 10 10 9 9 8 10 10 11 11
22 22 22 21 21 22 22 22 22 22 22 22 21 20 18 19 19 17 16 15 13 12 11 10 9 10 9 8 8 8 10 11
23 23 22 22 22 23 23 22 22 23 23 22 20 19 18 18 17 16 16 14 13 12 12 11 10 9 9 9 8 9 10 10
23 24 24 23 23 23 23 22 23 24 22 20 20 20 18 17 16 14 12 14 14 15 14 12 10 9 9 10 10 10 10 10
24 24 25 24 24 24 23 23 24 23 21 20 20 20 19 17 16 15 14 13 14 15 14 14 12 10 9 9 10 10 10 11
25 25 26 26 26 25 24 24 24 23 22 21 20 20 19 19 18 15 13 13 13 12 13 13 12 10 10 11 11 10 9 13
27 27 28 28 28 27 25 25 24 24 22 21 21 20 20 20 19 20 18 16 15 14 15 13 13 13 13 13 14 14 16 19
31 31 31 31 30 27 25 26 26 25 22 22 21 20 20 20 20 20 21 22 22 18 17 16 15 15 15 16 18 21 21 22
35 34 32 32 30 26 26 26 27 24 22 22 21 20 20 20 20 21 21 22 22 22 19 21 18 18 19 19 23 24 24 24